When you browse on this site, cookies collect data to enhance your experience and personalize the content and advertising you see.
Visit our Privacy Policy to learn more. By continuing to use the site, you agree to this use of cookies and data.
  • In Italy
  • List of Countries
  • For 7 days
  • Water Temperature
  • Satellite Maps
  • Weather Map
  • Weather Widgets
  • user-avatar
    Login

    Hourly Weather Tibissa

    Today, 24 June, Monday

    Time Temperature Precipitation Wind Pressure Humidity
    00:00 +31°C° 0 mm 3 mps 687 mmHg 14%
    01:00 +30°C° 0 mm 3 mps 687 mmHg 16%
    02:00 +29°C° 0 mm 3 mps 687 mmHg 17%
    03:00 +29°C° 0 mm 3 mps 687 mmHg 19%
    04:00 +28°C° 0 mm 3 mps 687 mmHg 20%
    05:00 +29°C° 0 mm 3 mps 687 mmHg 19%
    06:00 +30°C° 0 mm 3 mps 687 mmHg 18%
    07:00 +33°C° 0 mm 3 mps 688 mmHg 17%
    08:00 +34°C° 0 mm 4 mps 688 mmHg 15%
    09:00 +36°C° 0 mm 5 mps 689 mmHg 12%
    10:00 +39°C° 0 mm 6 mps 689 mmHg 10%
    11:00 +40°C° 0 mm 6 mps 689 mmHg 9%
    12:00 +40°C° 0 mm 6 mps 689 mmHg 9%
    13:00 +41°C° 0 mm 6 mps 689 mmHg 8%
    14:00 +41°C° 0 mm 6 mps 689 mmHg 8%
    15:00 +41°C° 0 mm 5 mps 688 mmHg 7%
    16:00 +41°C° 0 mm 5 mps 688 mmHg 7%
    17:00 +41°C° 0 mm 5 mps 688 mmHg 8%
    18:00 +40°C° 0 mm 4 mps 688 mmHg 8%
    19:00 +38°C° 0 mm 3 mps 688 mmHg 8%
    20:00 +37°C° 0 mm 3 mps 688 mmHg 10%
    21:00 +35°C° 0 mm 3 mps 688 mmHg 11%
    22:00 +33°C° 0 mm 3 mps 688 mmHg 12%
    23:00 +31°C° 0 mm 2 mps 688 mmHg 13%

    Tomorrow, 25 June, Tuesday

    Time Temperature Precipitation Wind Pressure Humidity
    00:00 +30°C° 0 mm 2 mps 688 mmHg 15%
    01:00 +29°C° 0 mm 1 mps 688 mmHg 16%
    02:00 +28°C° 0 mm 1 mps 688 mmHg 18%
    03:00 +28°C° 0 mm 1 mps 687 mmHg 19%
    04:00 +27°C° 0 mm 1 mps 687 mmHg 20%
    05:00 +29°C° 0 mm 1 mps 688 mmHg 18%
    06:00 +30°C° 0 mm 1 mps 688 mmHg 17%
    07:00 +32°C° 0 mm 1 mps 689 mmHg 15%
    08:00 +34°C° 0 mm 1 mps 689 mmHg 13%
    09:00 +35°C° 0 mm 1 mps 690 mmHg 11%
    10:00 +37°C° 0 mm 1 mps 690 mmHg 10%
    11:00 +39°C° 0 mm 2 mps 690 mmHg 9%
    12:00 +39°C° 0 mm 2 mps 690 mmHg 8%
    13:00 +40°C° 0 mm 2 mps 690 mmHg 8%
    14:00 +41°C° 0 mm 2 mps 690 mmHg 8%
    15:00 +41°C° 0 mm 2 mps 690 mmHg 7%
    16:00 +42°C° 0 mm 3 mps 690 mmHg 7%
    17:00 +40°C° 0 mm 3 mps 690 mmHg 8%
    18:00 +40°C° 0 mm 3 mps 690 mmHg 9%
    19:00 +40°C° 0 mm 4 mps 690 mmHg 10%
    20:00 +37°C° 0 mm 4 mps 690 mmHg 15%
    21:00 +35°C° 0 mm 4 mps 690 mmHg 20%
    22:00 +31°C° 0 mm 3 mps 690 mmHg 25%
    23:00 +30°C° 0 mm 3 mps 690 mmHg 27%

    Day after tomorrow, 26 June, Wednesday

    Time Temperature Precipitation Wind Pressure Humidity
    00:00 +30°C° 0 mm 2 mps 690 mmHg 29%
    01:00 +29°C° 0 mm 1 mps 689 mmHg 30%
    02:00 +28°C° 0 mm 1 mps 689 mmHg 31%
    03:00 +25°C° 0 mm 0 mps 689 mmHg 31%
    04:00 +25°C° 0 mm 0 mps 688 mmHg 32%
    05:00 +26°C° 0 mm 0 mps 689 mmHg 28%
    06:00 +28°C° 0 mm 0 mps 689 mmHg 25%
    07:00 +30°C° 0 mm 0 mps 690 mmHg 21%
    08:00 +33°C° 0 mm 1 mps 690 mmHg 18%
    09:00 +36°C° 0 mm 2 mps 691 mmHg 16%
    10:00 +37°C° 0 mm 3 mps 691 mmHg 13%
    11:00 +38°C° 0 mm 3 mps 691 mmHg 12%
    12:00 +40°C° 0 mm 4 mps 691 mmHg 11%
    13:00 +41°C° 0 mm 5 mps 691 mmHg 10%
    14:00 +41°C° 0 mm 6 mps 691 mmHg 10%
    15:00 +41°C° 0 mm 6 mps 690 mmHg 10%
    16:00 +41°C° 0 mm 6 mps 690 mmHg 10%
    17:00 +40°C° 0 mm 7 mps 689 mmHg 11%
    18:00 +39°C° 0 mm 7 mps 689 mmHg 13%
    19:00 +38°C° 0 mm 7 mps 689 mmHg 14%
    20:00 +35°C° 0 mm 6 mps 689 mmHg 21%
    21:00 +32°C° 0 mm 5 mps 689 mmHg 29%
    22:00 +29°C° 0 mm 3 mps 689 mmHg 36%
    23:00 +28°C° 0 mm 2 mps 689 mmHg 39%

    27 June, Thursday

    Time Temperature Precipitation Wind Pressure Humidity
    00:00 +27°C° 0 mm 2 mps 689 mmHg 42%
    01:00 +26°C° 0 mm 1 mps 689 mmHg 45%
    02:00 +26°C° 0 mm 1 mps 688 mmHg 46%
    03:00 +25°C° 0 mm 1 mps 688 mmHg 47%
    04:00 +25°C° 0 mm 1 mps 687 mmHg 48%
    05:00 +26°C° 0 mm 1 mps 688 mmHg 44%
    06:00 +26°C° 0 mm 1 mps 688 mmHg 40%
    07:00 +27°C° 0 mm 1 mps 688 mmHg 37%
    08:00 +29°C° 0 mm 2 mps 688 mmHg 33%
    09:00 +30°C° 0 mm 3 mps 689 mmHg 30%
    10:00 +31°C° 0 mm 3 mps 689 mmHg 26%
    11:00 +33°C° 0 mm 4 mps 689 mmHg 24%
    12:00 +34°C° 0 mm 4 mps 689 mmHg 22%
    13:00 +35°C° 0 mm 5 mps 689 mmHg 20%
    14:00 +35°C° 0 mm 5 mps 688 mmHg 19%
    15:00 +35°C° 0 mm 5 mps 688 mmHg 18%
    16:00 +35°C° 0 mm 4 mps 687 mmHg 18%
    17:00 +35°C° 0 mm 5 mps 687 mmHg 18%
    18:00 +34°C° 0 mm 5 mps 687 mmHg 19%
    19:00 +34°C° 0 mm 5 mps 687 mmHg 19%
    20:00 +32°C° 0 mm 5 mps 687 mmHg 24%
    21:00 +30°C° 0 mm 5 mps 688 mmHg 30%
    22:00 +28°C° 0 mm 5 mps 688 mmHg 35%
    23:00 +27°C° 0 mm 3 mps 687 mmHg 40%

    28 June, Friday

    Time Temperature Precipitation Wind Pressure Humidity
    00:00 +26°C° 0 mm 2 mps 687 mmHg 45%
    01:00 +25°C° 0 mm 1 mps 687 mmHg 49%
    02:00 +25°C° 0 mm 1 mps 687 mmHg 51%
    03:00 +22°C° 0 mm 0 mps 686 mmHg 53%
    04:00 +22°C° 0 mm 0 mps 686 mmHg 55%
    05:00 +24°C° 0 mm 1 mps 686 mmHg 52%
    06:00 +25°C° 0 mm 1 mps 686 mmHg 49%
    07:00 +26°C° 0 mm 2 mps 687 mmHg 45%
    08:00 +27°C° 0 mm 2 mps 687 mmHg 41%
    09:00 +28°C° 0 mm 3 mps 687 mmHg 36%
    10:00 +30°C° 0 mm 3 mps 687 mmHg 31%
    11:00 +31°C° 0 mm 3 mps 687 mmHg 27%
    12:00 +33°C° 0 mm 4 mps 687 mmHg 23%
    13:00 +34°C° 0 mm 4 mps 687 mmHg 19%
    14:00 +34°C° 0 mm 4 mps 686 mmHg 18%
    15:00 +35°C° 0 mm 4 mps 686 mmHg 16%
    16:00 +35°C° 0 mm 4 mps 686 mmHg 15%
    17:00 +35°C° 0 mm 4 mps 686 mmHg 16%
    18:00 +34°C° 0 mm 4 mps 686 mmHg 16%
    19:00 +34°C° 0 mm 5 mps 686 mmHg 17%
    20:00 +32°C° 0 mm 5 mps 686 mmHg 24%
    21:00 +30°C° 0 mm 5 mps 686 mmHg 30%
    22:00 +28°C° 0 mm 5 mps 686 mmHg 37%
    23:00 +27°C° 0 mm 4 mps 686 mmHg 40%

    29 June, Saturday

    Time Temperature Precipitation Wind Pressure Humidity
    00:00 +26°C° 0 mm 2 mps 685 mmHg 43%
    01:00 +25°C° 0 mm 1 mps 685 mmHg 46%
    02:00 +24°C° 0 mm 1 mps 685 mmHg 48%
    03:00 +24°C° 0 mm 1 mps 684 mmHg 51%
    04:00 +21°C° 0 mm 0 mps 684 mmHg 54%
    05:00 +22°C° 0 mm 0 mps 685 mmHg 50%
    06:00 +23°C° 0 mm 0 mps 685 mmHg 46%
    07:00 +26°C° 0 mm 1 mps 685 mmHg 42%
    08:00 +28°C° 0 mm 1 mps 686 mmHg 37%
    09:00 +29°C° 0 mm 1 mps 686 mmHg 32%
    10:00 +31°C° 0 mm 1 mps 686 mmHg 27%
    11:00 +32°C° 0 mm 2 mps 686 mmHg 23%
    12:00 +34°C° 0 mm 2 mps 686 mmHg 19%
    13:00 +35°C° 0 mm 3 mps 686 mmHg 16%
    14:00 +36°C° 0 mm 3 mps 686 mmHg 16%
    15:00 +36°C° 0 mm 4 mps 686 mmHg 15%
    16:00 +37°C° 0 mm 4 mps 686 mmHg 15%
    17:00 +36°C° 0 mm 4 mps 686 mmHg 16%
    18:00 +35°C° 0 mm 4 mps 686 mmHg 17%
    19:00 +35°C° 0 mm 4 mps 686 mmHg 18%
    20:00 +33°C° 0 mm 4 mps 686 mmHg 21%
    21:00 +32°C° 0 mm 5 mps 686 mmHg 24%
    22:00 +30°C° 0 mm 5 mps 686 mmHg 28%
    23:00 +29°C° 0 mm 4 mps 686 mmHg 30%
    Show more